Погода в Минасе

Уругвай     34°22′06″S   55°14′21″W
темп.,
°C
ветер,
м/с
пор.,
м/с
влажн.,
%
обл.,
%
осадки,
мм/ч
давл.,
гПа
погр.,
м
9 августа, вт
вт900:00+6вюв3384100 0.0 103038
03:00+6юв3686100 0.0 103088
06:00+5вюв399096 0.0 1030172
09:00+8вюв488489 0.0 1031359
12:00+12юв56585 0.0 10311188
15:00+13юв56545 0.0 10301404
18:00+8юв46772 0.0 1030104
21:00+5юв35920 0.0 103278
10 августа, ср
ср1000:00+4юв22930 0.0 103120
03:00+4юв22920 0.0 103012
06:00+3вюв22870 0.0 102910
09:00+7вюв23800 0.0 1029134
12:00+12в34580 0.0 10291009
15:00+14всв335430 0.0 10261223
18:00+9св227596 0.0 102613
21:00+7всв3488100 0.0 102674
11 августа, чт
чт1100:00+6всв3587100 0.0 102685
03:00+5св33915 0.0 102628
06:00+4св22920 0.0 102618
09:00+8ссв24850 0.0 1027153
12:00+14с56600 0.0 1026857
15:00+15ссз56570 0.0 10231186
18:00+11с33780 0.0 102232
21:00+8св34880 0.0 102347
12 августа, пт
пт1200:00+7св34895 0.0 102249
03:00+7св34925 0.0 102160
06:00+6св479314 0.0 1021130
09:00+10св4118558 0.0 1021291
12:00+15ссв696898 0.0 1019675
15:00+17ссв6765100 0.0 10171048
18:00+13ссв3586100 0.0 101674
21:00+12св3692100 0.0 1018115
13 августа, сб
сб1300:00+11св389442 0.0 1018164
03:00+10ссв34950 0.0 101854
06:00+10с22940 0.0 101830
09:00+13с22870 0.0 1019122
12:00+18ссз21700 0.0 1019678
15:00+20ссв22592 0.0 10161141
18:00+15св33824 0.0 101738
21:00+13всв46900 0.0 101784